Theta_e
315 318 320 320 316 310 308 311 312 312 311 311 313 313 313 314 312 312 312 311 310 311 311 310 310 309 309 308 305 304 303 302 301 301 300 299 299 299 299 299 298 298 298 297 297 296 294 294 294 294 294 294 294 294 294 294 294 294 294 294 294 294 294 294 295 295 295 295 295 295 296 296 297 298 298 298 298 299 300 299 299 300 299 297 297 301
315 319 320 315 310 308 309 311 311 311 310 310 313 313 314 315 314 312 313 311 310 311 310 309 309 308 308 308 306 304 303 302 301 300 299 299 299 299 299 298 298 298 298 297 296 295 294 294 294 294 294 294 294 294 294 294 294 294 294 294 294 294 294 294 294 294 294 295 295 295 295 295 296 297 298 299 298 298 299 299 299 299 297 297 297 297
318 319 315 310 309 310 309 311 310 310 312 312 314 315 315 316 315 313 312 311 310 310 309 309 308 307 308 308 305 304 303 301 301 300 300 299 299 299 298 298 297 297 298 297 296 294 294 294 293 293 293 293 294 293 293 294 294 294 293 293 294 294 294 294 294 294 294 294 294 294 294 295 295 296 297 298 298 298 298 298 299 298 297 297 296 296
317 317 312 310 311 310 309 311 312 311 313 315 315 315 316 317 316 314 313 311 310 309 309 309 309 308 308 308 305 304 302 301 301 301 301 300 299 299 298 298 297 297 297 297 296 294 293 293 293 293 293 293 293 293 293 293 293 294 294 293 294 294 294 293 293 293 293 293 293 293 294 294 295 295 296 297 297 298 298 298 298 298 299 298 296 295
315 314 312 312 312 311 312 314 314 314 314 316 317 317 316 315 313 313 312 310 308 309 309 308 308 308 308 307 305 303 301 300 300 299 300 300 299 299 299 298 298 297 296 296 296 295 293 293 293 293 293 293 293 293 293 293 293 293 293 293 293 293 293 293 293 293 293 293 293 293 293 294 294 294 295 295 296 297 297 298 298 299 299 298 296 295
313 312 313 314 314 315 316 315 315 317 314 313 317 317 314 312 312 313 313 311 310 310 309 307 308 310 310 308 305 302 301 299 299 298 298 298 299 298 298 298 297 297 296 296 296 294 293 292 292 292 292 293 293 293 293 293 293 293 293 293 293 293 292 292 292 292 292 292 292 292 293 293 294 294 294 295 295 295 296 297 298 299 299 299 297 295
310 310 313 316 315 316 318 316 316 317 314 312 315 314 310 309 311 313 312 312 311 311 309 308 308 308 310 309 306 303 301 299 298 298 298 298 298 297 297 297 296 296 296 296 296 294 292 292 292 292 292 292 293 293 293 293 293 293 293 293 292 292 292 292 292 292 291 291 291 291 292 292 293 293 294 294 294 295 295 296 298 299 299 299 297 295
310 311 314 315 314 315 315 314 316 316 314 314 312 310 309 310 311 312 311 311 311 310 309 309 309 307 307 308 307 304 303 300 298 298 298 298 298 297 297 296 295 295 295 296 295 294 292 292 292 292 292 292 292 293 293 293 292 292 292 292 292 291 291 291 291 291 291 290 289 290 290 291 292 292 293 294 294 294 295 296 297 298 299 299 298 295
312 315 316 315 314 314 313 313 314 314 313 312 308 307 308 308 310 310 310 311 310 310 309 309 310 308 307 308 307 305 304 300 298 298 298 297 297 296 296 295 295 295 295 295 294 293 292 292 292 292 292 292 292 293 293 292 292 292 292 292 291 291 290 290 290 290 289 288 288 288 289 290 291 292 292 292 293 294 294 295 296 298 299 299 298 296
312 312 311 312 313 312 311 311 312 312 312 310 308 310 311 310 311 310 311 312 310 309 307 307 310 309 308 309 308 306 304 300 298 298 297 297 297 296 295 295 294 294 295 295 293 292 292 292 292 292 292 292 292 292 292 292 292 292 292 291 291 290 289 289 289 288 287 286 286 287 288 288 289 290 291 292 293 294 294 295 295 297 299 299 298 296
309 307 307 309 311 310 308 310 311 310 310 310 310 311 311 311 311 310 311 311 308 308 307 307 309 308 308 310 307 306 304 301 299 297 296 296 296 296 295 294 294 294 294 294 293 292 292 292 292 292 292 292 292 292 292 292 292 291 291 291 290 289 289 288 287 286 285 285 285 285 285 285 286 287 289 290 291 293 294 294 295 296 298 299 298 297
310 309 311 310 309 310 308 309 311 309 308 310 310 310 310 311 309 308 311 310 307 309 307 305 307 307 308 308 304 302 301 300 299 297 296 296 295 295 295 294 294 294 294 294 294 293 292 292 292 292 292 292 292 291 291 291 291 290 290 290 289 288 287 287 286 285 284 285 284 284 284 284 285 286 287 287 288 289 291 293 294 296 298 299 299 297
314 314 314 311 308 309 311 310 311 311 310 309 309 308 310 311 310 310 313 313 311 309 304 302 304 304 304 305 302 299 297 297 297 296 296 295 295 295 295 294 294 294 294 294 294 293 292 292 292 292 292 291 291 291 291 291 290 289 289 288 288 287 286 285 285 284 284 284 284 284 283 283 284 285 285 286 287 287 289 290 292 295 298 298 298 298
317 316 313 311 309 309 312 311 311 312 310 309 309 308 309 311 310 310 311 312 312 309 304 302 303 303 303 303 302 299 296 296 296 296 296 295 295 295 294 294 294 294 294 294 293 293 293 292 291 291 291 291 291 291 291 290 289 289 288 287 287 286 285 284 284 283 283 283 283 283 283 283 283 283 284 284 286 287 288 289 291 294 298 298 298 298
317 318 314 312 310 310 312 311 309 308 307 307 306 306 308 309 308 309 308 309 311 308 305 303 303 304 304 302 300 297 296 296 296 296 297 296 295 295 294 294 294 294 293 293 293 293 292 291 291 291 291 291 291 291 290 289 289 288 287 286 286 285 284 283 283 282 282 281 281 282 282 282 282 282 282 282 283 285 286 288 290 293 296 298 298 298
315 319 313 308 307 308 309 308 305 306 308 306 305 307 308 307 307 308 307 306 307 305 302 302 304 304 302 299 297 297 296 296 296 296 296 295 295 295 294 294 294 293 293 293 293 292 292 291 291 291 290 291 291 290 289 289 288 287 286 285 285 284 283 282 282 281 280 280 280 280 281 281 281 281 281 281 281 282 283 285 288 289 291 295 298 298
316 318 311 306 305 304 304 304 304 307 309 305 305 307 306 304 304 306 306 304 304 303 301 303 303 302 302 300 297 296 296 295 296 296 294 295 295 294 294 294 293 293 293 293 292 292 291 291 290 290 290 290 290 289 289 288 287 286 285 284 284 283 282 282 281 280 280 279 279 279 279 280 280 280 280 279 280 281 282 283 285 287 289 292 295 297
316 316 311 307 307 304 301 302 303 304 305 303 304 305 303 302 302 303 304 302 301 301 302 304 303 301 302 302 297 296 296 295 296 295 294 294 294 294 294 294 293 293 293 292 292 292 291 290 290 290 290 290 289 289 288 287 287 285 284 283 283 282 282 281 280 280 279 278 278 278 278 278 278 278 278 279 279 280 281 283 285 287 289 289 290 294
314 315 312 307 306 304 302 304 304 303 302 303 303 302 302 303 302 302 303 302 301 301 303 304 303 301 302 302 299 296 296 296 296 295 294 294 294 294 294 293 293 293 292 292 292 292 290 290 290 290 290 289 289 288 287 287 286 285 283 283 282 282 281 280 280 279 278 277 277 277 277 277 277 277 278 278 278 279 280 282 284 285 287 288 288 291
311 313 312 306 303 302 301 303 305 303 301 300 300 299 300 300 301 302 302 301 302 301 302 303 302 302 302 302 301 298 296 296 295 294 294 294 294 294 293 293 293 293 292 292 292 291 290 290 290 290 289 289 288 287 286 286 285 284 283 282 282 281 280 280 279 278 278 277 276 276 276 276 276 276 277 277 278 278 279 280 282 283 285 286 288 289
310 309 310 305 301 301 303 303 304 304 302 299 298 298 299 298 300 301 300 300 301 300 300 300 300 301 301 299 299 297 295 296 295 294 294 294 293 293 293 293 293 292 292 291 291 291 290 289 289 289 289 288 287 286 286 285 284 283 283 282 282 281 280 279 279 278 278 277 276 276 275 275 275 276 276 276 277 278 278 279 280 281 283 284 286 286
310 308 308 306 302 303 304 302 302 303 303 301 298 298 299 298 300 301 299 300 300 298 298 298 298 300 300 298 297 296 296 296 295 294 294 294 293 293 293 293 292 292 291 291 290 290 289 289 289 289 288 288 287 286 285 284 283 283 283 282 282 281 280 279 279 278 277 277 276 276 275 275 275 275 275 276 276 277 278 278 279 280 281 282 283 284
308 307 306 306 305 304 303 300 299 299 300 301 300 299 299 298 299 299 299 301 301 298 296 297 297 298 299 298 298 297 296 296 295 295 294 293 293 293 293 292 292 292 291 290 290 289 289 288 289 288 288 287 286 285 285 284 283 283 282 281 281 281 280 279 278 277 277 276 276 275 275 275 274 274 275 275 276 277 277 278 279 279 280 281 282 282
306 307 306 306 305 303 299 296 297 298 297 298 298 298 298 297 298 299 298 300 301 298 297 298 297 297 298 299 298 297 297 297 296 295 294 293 293 293 292 292 292 291 290 290 290 289 288 288 288 287 287 286 286 285 284 283 283 282 281 280 279 280 280 279 278 277 276 276 275 275 274 274 274 274 274 274 275 276 277 278 278 279 279 280 281 281
307 307 306 306 308 307 302 298 297 297 296 296 296 297 298 297 298 299 298 298 299 297 296 297 297 297 298 299 299 297 297 297 296 295 294 294 293 292 292 292 291 291 290 290 290 289 289 288 287 286 286 285 285 284 284 283 282 281 280 279 279 279 279 278 277 276 276 275 275 274 274 274 274 274 274 274 274 275 276 277 277 278 279 279 280 281
307 306 305 309 312 315 315 309 303 299 296 296 296 297 298 297 297 298 297 298 298 296 296 296 296 296 297 298 297 297 296 296 296 295 294 293 293 292 292 292 291 290 290 290 289 289 289 288 286 286 285 285 284 284 283 282 281 280 279 279 278 278 277 277 276 276 275 275 274 274 274 274 274 274 274 274 274 275 275 276 277 277 278 279 279 280
305 303 303 307 310 312 313 307 301 299 296 296 296 296 296 297 297 297 297 297 297 296 297 297 296 296 297 296 296 296 296 296 296 295 293 293 293 292 292 292 291 290 290 289 289 289 288 287 286 285 285 284 283 283 282 281 280 279 279 278 277 277 277 277 276 275 275 274 274 274 274 274 273 273 273 273 274 274 275 275 276 276 277 278 279 279
303 303 302 303 304 306 306 302 299 299 296 295 296 295 295 297 299 299 297 296 296 297 296 296 296 297 296 296 296 295 295 295 295 294 293 292 292 292 291 291 290 290 289 289 289 288 287 286 285 284 284 283 283 282 281 280 279 278 278 277 277 277 277 276 275 275 274 274 274 274 273 273 273 273 273 273 273 273 274 274 274 275 276 277 278 279
301 303 303 302 301 302 302 300 299 298 296 295 295 295 295 295 297 298 297 296 296 296 296 295 295 296 296 295 295 295 295 295 294 293 292 292 292 292 291 290 290 289 289 289 288 287 286 285 285 284 283 282 282 281 280 279 278 278 277 276 276 276 276 276 275 274 274 274 273 273 273 273 273 273 273 273 273 273 273 273 274 274 275 276 277 278
300 301 301 301 301 300 300 300 299 297 296 296 295 295 295 295 295 296 296 296 296 296 295 295 295 295 295 295 295 295 295 295 294 292 292 292 292 292 291 290 290 289 288 288 288 287 286 284 283 283 282 281 280 280 279 278 277 277 276 275 275 275 275 275 274 274 273 273 273 273 273 272 272 272 272 272 272 273 273 273 273 274 274 275 276 277
300 301 300 298 299 300 298 298 298 297 296 296 295 296 295 294 294 295 295 295 296 296 295 295 295 295 295 295 295 295 295 295 293 292 292 292 292 292 291 290 289 289 288 288 287 286 284 283 282 282 281 280 279 279 278 277 276 276 275 275 274 274 274 274 273 273 273 272 272 272 272 272 272 272 271 271 272 272 272 273 273 273 274 274 275 276
299 300 299 298 300 301 299 297 297 296 296 296 296 296 296 295 295 295 295 295 295 296 296 296 296 296 295 295 296 295 294 293 293 293 292 292 291 291 290 290 289 289 288 287 286 285 284 283 282 281 280 279 278 277 277 276 275 275 274 274 273 273 273 273 272 272 272 272 272 271 271 271 271 271 271 271 271 271 272 272 273 273 273 274 275 276
298 299 299 299 301 301 298 296 296 295 297 298 298 297 296 296 296 296 296 296 296 296 296 296 296 296 296 296 296 295 293 293 293 293 292 291 291 290 290 290 289 288 287 286 285 284 283 282 281 280 279 278 277 276 276 275 274 274 273 272 272 272 272 272 271 271 271 271 271 271 271 270 270 270 270 270 271 271 271 272 272 273 273 273 274 275
298 299 299 299 301 299 295 295 295 297 300 301 299 298 297 295 296 296 296 296 296 296 296 296 296 295 296 295 295 294 293 293 293 292 291 291 291 290 290 289 288 287 286 285 284 283 281 280 279 279 278 277 276 275 274 274 273 272 272 271 271 271 271 271 271 271 270 270 270 270 270 270 269 270 270 270 270 270 270 271 271 272 272 272 273 274
298 298 298 299 299 297 295 295 298 301 302 298 295 296 297 296 295 296 295 296 296 296 295 295 295 295 295 295 294 293 293 293 292 291 291 291 290 290 289 288 287 285 284 283 282 281 280 279 278 278 277 276 275 274 273 272 272 271 270 270 270 270 270 270 270 270 270 270 270 270 269 269 269 269 269 269 269 269 270 270 270 271 271 271 272 273
298 298 298 298 298 297 296 297 301 303 300 296 294 294 294 294 294 295 295 295 295 295 295 294 294 295 295 294 294 293 292 291 291 291 291 290 290 288 288 287 285 284 283 282 281 280 279 278 277 276 275 275 274 273 272 271 270 270 269 269 269 269 269 269 269 270 269 269 269 269 268 268 268 268 268 268 268 269 269 269 270 270 270 271 272 273
298 298 298 298 298 298 297 298 300 300 298 298 296 294 293 294 294 295 296 295 294 294 294 294 294 293 294 294 293 292 291 291 291 291 290 289 289 287 286 285 284 283 282 281 280 279 278 277 276 275 274 273 272 271 271 270 269 268 268 268 269 269 269 269 269 269 269 269 268 268 267 267 267 267 267 268 268 269 269 269 270 270 271 271 272 273
298 298 298 298 298 297 296 298 299 299 300 299 297 295 295 294 294 294 294 294 294 293 293 293 293 292 293 294 293 292 293 293 292 291 289 288 287 286 285 284 283 282 281 279 278 277 276 275 275 274 273 272 271 270 269 268 268 267 267 268 268 268 268 268 268 268 268 267 267 267 266 266 267 267 267 267 268 268 269 269 269 270 270 271 272 273
297 297 297 298 298 297 297 298 298 299 300 297 294 294 294 294 295 295 294 294 294 293 293 292 292 293 294 293 293 293 294 293 292 291 289 287 286 285 284 283 281 280 279 278 277 276 275 274 273 272 271 270 269 269 268 267 267 267 267 267 268 268 268 268 268 267 266 266 266 265 266 266 266 266 266 266 267 267 268 269 269 270 270 271 271 272
296 297 296 297 298 297 297 297 298 298 298 294 291 292 293 294 294 296 297 297 295 293 292 293 292 293 294 293 293 293 293 292 291 291 289 287 285 284 283 282 280 279 278 276 276 275 274 273 272 270 269 269 268 268 267 267 266 266 266 267 267 267 267 267 266 265 265 265 265 264 265 265 265 265 266 266 267 267 268 269 269 270 270 271 272 273
295 296 296 296 297 297 297 297 297 297 296 293 291 291 292 294 294 295 297 298 294 293 293 293 293 293 293 293 293 293 292 291 291 290 288 286 284 283 282 280 279 278 276 275 274 273 272 271 270 269 268 268 267 267 266 266 266 266 266 266 267 267 266 266 265 264 264 264 263 263 264 264 264 265 265 266 267 268 268 269 270 270 271 271 272 273
295 295 295 295 295 295 297 297 296 297 296 293 291 291 293 294 295 294 295 294 293 294 294 293 292 293 292 292 292 291 291 290 290 288 286 284 283 282 280 279 277 276 275 274 273 272 271 269 268 268 267 267 266 266 265 265 265 265 266 266 266 265 265 264 264 263 263 263 263 263 263 264 264 265 266 267 268 269 270 271 271 271 272 272 273 274
295 294 294 295 295 294 295 296 295 297 296 293 291 292 292 294 295 295 294 293 293 294 293 292 292 293 293 292 291 291 290 289 288 286 284 283 282 280 279 277 276 275 274 273 272 271 269 268 267 267 266 266 265 265 265 265 265 265 265 265 265 264 263 263 262 262 262 262 262 263 263 264 265 265 266 268 269 271 272 273 273 273 273 274 275 276
296 295 295 295 294 294 295 295 295 295 294 292 292 292 292 292 294 297 296 294 293 293 293 292 293 292 292 292 291 290 289 288 286 284 283 282 280 279 277 276 275 274 273 272 270 269 268 267 266 266 265 265 265 264 264 264 264 264 264 264 263 263 262 262 261 261 261 262 262 263 264 264 265 266 268 269 271 272 273 274 275 276 276 276 277 279
298 297 297 296 294 295 296 296 295 294 293 292 292 293 293 292 293 296 297 295 293 292 293 292 292 292 291 290 289 289 287 286 285 283 282 280 279 277 276 275 274 273 272 270 269 268 267 266 265 265 264 264 264 264 264 264 264 263 263 263 262 261 261 261 260 261 261 262 262 263 264 265 266 267 269 270 270 271 272 274 276 278 279 281 282 284
297 296 297 296 295 295 296 295 294 294 294 292 292 294 294 292 293 295 295 294 293 292 292 292 291 290 290 289 288 287 286 284 283 282 280 279 277 276 275 273 272 272 270 269 268 267 266 265 264 264 264 263 263 263 263 263 263 262 262 261 261 260 260 260 260 260 261 262 263 264 265 265 267 268 269 269 269 270 271 273 274 277 280 283 286 287
296 295 296 296 296 297 297 295 294 294 294 293 292 293 294 293 294 295 294 293 293 292 292 291 290 288 287 287 288 286 284 283 282 280 279 277 276 275 273 272 271 270 269 267 266 266 265 264 264 263 263 263 263 263 262 262 262 261 261 260 260 260 259 259 260 260 261 262 263 264 265 266 267 268 268 269 269 270 270 271 273 275 277 280 284 287
296 295 295 295 296 296 296 296 294 294 294 293 292 292 293 293 293 294 293 293 292 290 289 289 288 287 286 285 285 284 283 281 280 279 277 276 274 273 272 271 270 268 267 266 266 265 264 263 263 262 262 262 262 262 262 261 261 260 260 260 259 259 259 259 260 260 261 262 264 264 265 266 267 267 268 268 269 269 270 271 272 274 276 278 281 284
296 295 295 295 295 296 296 295 295 294 294 293 293 292 292 292 293 292 291 291 290 288 286 285 284 284 284 283 282 282 282 280 278 277 276 274 273 272 270 269 268 267 266 265 265 265 264 263 262 262 262 262 262 261 261 260 260 259 259 259 259 259 259 259 260 260 261 263 264 265 266 266 267 267 267 268 268 268 269 270 271 273 275 277 279 281
295 295 295 295 296 296 296 295 295 295 295 294 293 292 292 292 292 291 290 289 289 287 285 284 282 280 281 280 279 281 282 279 275 274 274 272 271 270 269 268 266 265 265 265 264 264 263 262 262 261 261 261 261 260 260 259 259 259 258 258 258 258 258 259 260 261 262 263 264 265 266 266 266 266 266 267 267 267 268 269 270 272 274 275 276 278
296 296 295 295 296 297 296 296 295 295 295 294 294 293 293 293 293 292 290 289 288 286 284 283 282 281 279 277 276 277 279 277 274 273 272 271 270 269 267 266 265 265 264 264 264 262 262 261 261 261 261 260 260 260 259 259 258 258 258 257 258 258 258 259 260 261 262 263 264 265 265 265 265 265 266 266 266 266 267 268 268 269 271 272 273 276
Wind_Speed
2 3 3 1 2 4 4 3 2 4 3 4 4 4 6 6 6 8 4 3 2 1 4 5 6 9 7 6 10 8 8 8 8 8 6 6 5 4 5 5 2 2 1 3 5 10 15 17 19 22 22 22 23 23 26 28 27 28 31 32 33 33 34 33 33 34 35 35 34 33 32 33 34 33 33 33 33 31 30 34 36 34 36 39 39 37
3 3 3 3 3 3 2 1 2 3 4 4 5 5 6 6 6 6 3 4 4 0 3 6 8 11 10 5 10 9 8 8 8 8 7 6 6 4 5 4 2 2 1 3 4 9 16 18 21 24 23 23 23 24 27 27 27 29 31 32 34 36 35 33 33 35 36 37 36 35 35 36 37 37 35 33 34 33 32 34 33 33 36 37 38 38
3 3 1 3 1 1 1 2 3 4 4 5 5 5 6 4 3 5 2 3 2 1 3 7 9 10 8 5 11 9 8 7 6 7 7 6 6 4 4 4 2 3 3 4 4 8 16 19 21 23 23 23 23 24 26 26 28 29 29 32 35 36 34 34 37 37 38 40 41 41 41 40 39 39 36 36 36 35 33 32 31 32 35 36 37 38
5 3 2 2 1 1 2 3 4 5 5 5 5 5 6 2 1 3 1 2 4 5 6 9 8 7 5 5 9 7 6 6 6 7 6 5 5 5 4 4 4 3 4 5 4 7 14 17 19 21 24 25 25 25 26 27 29 28 29 33 34 35 35 37 39 40 40 42 44 44 45 44 41 39 38 36 36 35 32 31 32 32 33 34 36 37
7 4 2 0 1 0 3 3 4 3 3 4 4 4 4 2 1 3 3 5 8 7 6 6 7 6 5 8 7 5 7 6 7 7 6 5 5 5 4 5 5 4 4 5 5 6 11 13 17 22 24 26 26 26 27 29 30 30 32 33 34 36 38 40 41 42 42 42 43 43 43 41 36 35 34 32 32 32 32 33 33 32 32 33 34 36
7 3 1 0 1 0 2 4 3 1 2 4 1 1 1 2 3 4 6 6 6 5 2 2 4 5 6 10 7 6 7 7 7 7 7 6 5 5 4 6 5 4 3 5 5 6 10 13 18 22 24 26 25 26 28 30 31 31 33 34 36 39 41 43 43 41 41 41 43 42 39 36 33 31 31 29 30 33 34 34 33 31 31 32 33 34
3 1 3 1 1 1 3 5 2 3 1 3 2 2 3 2 4 5 5 4 2 5 3 2 2 5 2 7 9 8 8 8 8 7 7 6 5 5 5 5 3 3 3 5 5 6 9 14 18 21 24 26 26 29 30 28 29 32 35 36 37 41 43 45 44 42 40 40 41 41 39 38 35 33 33 33 33 35 36 35 35 33 30 30 31 32
2 2 2 2 1 2 3 3 2 2 1 2 3 1 1 2 5 5 5 4 4 6 7 4 5 6 6 6 10 13 10 9 9 7 6 6 5 5 5 5 2 3 4 5 5 6 9 14 17 20 23 26 30 32 29 29 34 37 37 36 38 43 46 48 46 42 37 37 42 45 43 41 38 35 37 38 36 36 37 36 36 33 29 28 28 30
2 2 2 2 2 2 2 2 1 1 1 2 2 1 2 4 7 7 6 6 5 6 7 6 5 5 7 3 7 12 11 9 10 9 8 6 5 6 5 4 1 4 4 4 5 7 11 16 20 23 24 27 30 31 29 34 39 37 36 37 41 46 48 48 45 39 38 44 47 45 42 40 39 37 38 40 39 37 36 36 36 33 29 27 25 27
1 2 2 3 2 3 2 3 2 1 1 1 3 4 5 6 7 6 6 5 5 6 8 7 6 5 6 2 7 8 8 9 9 8 8 7 6 6 4 2 2 3 3 5 6 9 13 17 22 26 26 28 29 28 31 36 37 35 37 40 43 47 47 46 42 40 46 50 45 39 39 42 42 41 40 39 39 37 35 35 36 34 31 26 24 25
1 3 2 1 2 2 3 2 2 2 1 3 4 5 5 6 7 5 6 4 3 5 7 6 7 8 5 2 7 6 5 9 9 7 7 7 6 6 4 1 2 3 4 6 6 9 14 18 22 25 26 27 28 28 32 35 35 36 40 41 43 46 45 43 41 44 48 45 40 39 42 44 43 42 40 37 37 36 33 33 34 34 30 27 24 23
1 1 1 0 1 2 4 0 3 3 1 2 1 4 4 4 4 3 2 2 2 5 2 4 1 4 6 2 5 4 3 8 9 7 8 6 5 5 2 1 3 5 5 6 7 8 12 15 20 22 24 26 26 29 33 34 35 39 42 42 41 44 44 43 44 46 46 41 39 40 41 41 40 38 37 37 37 37 34 33 34 33 30 26 24 21
2 4 2 3 2 1 3 1 1 1 1 2 2 2 3 4 3 2 1 1 4 5 2 6 7 2 7 5 3 7 5 7 7 7 8 6 5 4 2 3 4 4 5 6 7 7 8 11 16 20 23 25 26 29 31 32 35 40 43 42 40 42 44 45 45 46 46 44 41 39 39 39 39 37 36 37 36 36 35 35 37 35 29 25 23 22
2 1 2 3 1 2 4 2 1 1 1 4 2 2 3 1 3 4 2 2 4 4 4 4 5 3 5 5 4 9 8 8 8 7 7 6 6 4 2 2 3 4 5 6 5 6 7 10 16 20 23 25 26 28 30 33 38 40 40 41 41 42 44 45 46 45 45 44 42 41 38 37 38 37 37 38 37 36 35 34 37 37 30 26 24 23
3 3 1 3 1 3 4 3 3 2 1 4 2 2 3 2 3 4 1 2 4 5 5 0 3 3 3 2 3 9 8 8 8 7 6 6 6 5 2 2 3 5 5 5 5 7 9 13 17 20 23 25 26 28 31 35 39 38 38 40 42 42 43 46 47 45 43 42 42 42 39 36 36 36 36 37 37 38 38 35 34 36 33 27 26 26
4 5 1 0 1 4 3 1 3 3 0 2 2 3 1 2 3 4 1 2 2 6 6 2 2 4 3 1 5 9 7 7 7 6 6 5 4 4 3 3 4 4 4 5 6 7 10 15 19 21 23 24 24 27 32 37 38 36 37 40 43 43 42 44 44 42 42 41 41 41 39 37 36 35 36 36 37 40 40 37 34 35 37 34 29 27
3 4 0 1 1 2 1 1 1 1 0 0 2 1 3 1 2 1 3 1 2 5 6 2 3 4 2 2 4 8 7 7 7 6 6 4 3 4 3 2 3 4 5 6 6 7 9 15 20 22 23 22 23 29 34 37 37 35 37 40 43 43 42 43 43 40 39 39 40 40 37 36 36 36 37 37 37 38 38 38 35 34 34 36 35 30
1 3 3 1 0 0 2 3 1 1 2 3 2 2 1 1 2 2 2 2 1 6 6 3 6 6 2 2 3 7 7 7 7 5 5 4 3 2 1 2 4 5 5 7 7 7 10 16 20 22 24 23 24 30 34 36 35 35 36 38 39 40 40 42 43 41 40 38 39 39 36 35 36 36 38 37 36 36 37 37 35 32 33 35 39 36
2 2 3 0 1 0 2 2 2 1 2 3 1 1 2 0 1 2 1 1 2 7 6 4 7 6 5 4 5 8 8 6 5 5 3 1 2 2 2 4 5 5 6 7 7 7 10 15 20 21 22 23 26 31 32 33 34 33 35 39 39 39 38 40 41 41 40 38 36 37 37 37 37 36 37 37 36 36 36 36 34 33 34 35 36 37
2 1 3 1 1 1 1 1 2 2 1 3 2 2 1 2 2 2 2 2 3 6 7 8 8 3 4 5 7 8 6 6 4 3 2 1 2 3 3 3 4 5 6 7 7 8 10 15 20 21 21 23 26 30 31 31 32 33 37 40 39 38 39 40 40 39 39 37 36 36 38 38 37 36 37 37 37 36 35 34 34 33 34 34 34 36
2 2 3 2 2 0 1 3 5 5 4 3 2 3 3 2 1 1 1 2 3 5 5 8 10 4 1 0 5 7 5 6 5 3 2 1 2 2 2 2 4 5 6 7 7 9 11 16 21 22 22 25 28 30 30 29 32 35 37 37 37 37 39 40 40 40 38 37 36 36 36 37 38 38 38 38 37 36 35 35 34 33 33 33 34 35
1 3 4 2 2 4 4 2 2 3 4 5 5 6 6 5 3 2 5 2 2 5 4 6 12 7 2 1 4 6 4 6 6 3 3 2 3 2 1 2 4 5 6 8 9 9 11 15 20 22 24 27 30 30 30 31 35 35 34 37 40 39 36 37 40 41 40 38 36 37 37 36 37 38 38 38 37 36 36 36 34 33 32 33 33 33
1 1 2 6 5 4 3 0 0 1 2 3 4 4 5 6 6 5 7 3 1 3 3 4 11 8 3 4 4 5 5 6 5 5 4 3 4 1 2 3 4 6 7 8 9 9 12 16 19 22 26 28 29 29 31 33 35 33 33 39 42 40 37 37 39 40 40 38 37 38 38 36 36 37 38 38 37 36 36 36 35 34 33 33 32 32
1 1 1 6 5 2 1 1 1 0 0 2 5 4 4 5 5 5 5 1 1 6 4 3 9 7 1 3 3 4 5 5 5 5 4 4 3 1 2 3 5 7 9 9 9 9 13 16 17 20 24 26 27 28 30 32 33 34 37 41 41 41 41 39 39 40 40 39 38 38 38 37 35 36 37 37 37 36 35 36 35 35 35 33 32 31
2 2 2 2 6 5 3 1 1 1 2 3 4 4 5 5 3 1 1 2 3 12 10 6 11 9 2 2 4 5 5 5 6 4 5 5 2 1 2 4 6 8 9 10 11 11 12 12 14 18 22 24 26 28 29 31 33 36 39 40 39 40 42 41 40 40 40 39 38 38 37 36 36 36 36 36 36 35 35 36 35 34 35 34 32 31
3 2 3 3 7 9 7 4 3 2 3 3 4 7 8 7 7 4 2 3 8 12 11 10 13 11 6 4 3 4 5 5 6 2 4 4 3 3 4 5 7 9 10 12 12 12 11 11 13 19 23 24 26 27 29 31 33 37 39 40 40 40 40 40 39 39 40 39 38 38 38 38 38 37 36 35 35 35 34 34 34 34 35 35 34 33
2 1 6 10 11 12 9 5 1 2 4 4 5 9 10 10 12 9 5 8 9 6 9 14 13 13 15 11 8 9 7 8 8 3 3 4 3 4 4 5 7 8 10 11 12 11 12 13 15 19 23 25 26 28 29 31 33 36 37 40 42 41 38 38 38 39 40 38 38 40 40 40 39 38 37 35 34 34 34 34 35 35 36 37 35 34
3 4 10 14 17 18 11 5 2 4 6 7 6 8 10 11 13 12 13 14 6 2 13 16 10 13 19 13 9 10 8 8 7 1 3 2 2 3 4 6 8 9 10 11 11 11 13 15 15 18 23 25 27 29 31 33 35 36 36 38 40 41 40 39 39 39 39 39 40 42 42 41 41 38 36 35 34 34 34 35 35 36 36 37 36 35
3 6 9 11 16 18 12 9 7 5 7 9 8 9 11 13 14 16 19 18 10 10 17 16 11 16 17 11 11 9 6 7 5 2 2 1 2 3 5 7 9 10 11 11 11 11 13 15 15 17 22 25 27 30 32 34 36 36 37 38 39 40 39 39 39 39 40 41 42 43 43 42 40 37 36 35 35 34 33 33 34 35 36 37 38 38
3 5 6 8 13 14 11 11 10 9 10 12 11 12 13 15 17 18 20 18 16 19 22 19 20 23 18 13 13 10 6 6 2 4 1 1 3 5 6 7 8 9 10 11 11 12 12 14 16 18 22 25 27 29 31 33 36 37 38 39 39 40 39 39 41 41 41 42 43 43 42 42 40 37 35 35 35 34 33 33 35 37 38 38 39 40
3 2 2 4 8 11 9 9 10 10 12 15 15 14 15 17 19 20 19 17 16 20 23 22 21 22 17 12 10 9 6 4 4 2 1 1 4 5 6 7 8 9 10 11 12 12 12 14 16 17 20 24 27 30 31 33 36 38 39 39 39 40 40 40 41 42 43 43 43 42 41 41 40 38 36 36 36 36 37 36 37 38 38 39 39 39
5 3 2 3 5 6 5 7 8 7 9 17 22 20 18 18 19 19 17 15 15 18 21 19 16 16 13 6 4 7 6 5 4 2 0 2 3 4 6 7 8 8 10 11 12 12 13 15 15 16 20 25 29 31 32 35 38 38 39 39 40 41 41 41 40 42 44 43 42 41 40 38 39 39 38 38 38 38 38 37 37 36 36 37 37 38
6 4 2 4 4 2 3 5 2 3 6 14 16 16 19 22 21 19 16 17 19 18 15 14 14 13 8 3 4 7 5 4 3 3 2 1 3 4 5 6 6 8 10 11 11 12 13 14 17 20 23 26 29 32 34 36 36 37 38 39 41 41 41 43 43 42 42 42 40 39 39 38 39 41 40 38 38 38 38 36 35 35 34 35 36 37
7 7 3 4 3 1 4 5 4 2 9 11 4 8 17 21 22 21 20 20 19 16 13 13 13 11 7 5 7 6 3 3 3 4 3 1 3 5 4 4 5 8 10 10 11 11 11 15 20 24 26 28 30 33 36 36 35 36 37 38 41 41 40 42 43 41 40 40 39 38 38 38 39 39 39 39 37 37 37 35 35 35 35 35 35 36
9 8 4 3 2 2 3 4 1 7 9 4 2 3 9 13 16 18 21 19 15 13 14 16 15 12 10 9 6 4 4 5 5 3 2 3 4 2 2 4 6 8 9 9 10 11 13 17 22 25 27 30 32 34 35 36 36 38 39 38 39 40 39 40 41 40 39 39 38 38 38 37 37 37 37 38 37 36 37 36 36 36 35 34 33 32
9 7 5 3 2 2 2 4 6 7 9 6 4 3 2 4 7 9 14 15 12 12 14 15 15 13 10 8 4 6 6 6 4 2 4 2 1 4 3 4 6 6 7 8 10 12 16 20 22 25 29 32 34 34 34 35 36 38 40 40 38 38 39 38 37 36 37 37 38 38 38 37 37 37 37 37 37 37 37 36 36 35 33 32 32 30
8 7 4 3 3 3 3 7 7 9 17 15 7 6 6 7 8 6 10 11 10 12 13 14 13 11 9 5 5 7 6 5 4 4 2 4 6 5 1 3 5 6 7 11 14 16 20 22 23 26 30 33 34 34 33 34 36 38 39 38 37 37 36 33 33 35 36 37 38 38 38 37 37 38 38 37 35 35 35 34 33 32 29 28 27 27
8 7 6 4 4 3 3 5 5 7 12 8 0 5 9 8 6 5 6 8 7 12 13 12 11 10 6 6 7 7 6 4 3 3 2 5 5 3 1 3 5 7 10 14 17 19 21 22 24 27 30 32 34 33 32 34 36 37 36 35 36 35 32 30 33 35 36 38 39 38 38 38 37 38 39 38 36 36 36 35 33 30 28 27 27 27
7 6 4 4 4 3 4 5 6 9 10 1 4 3 6 7 8 7 3 7 7 12 13 10 9 8 6 7 6 6 5 0 4 4 4 4 3 3 2 3 5 8 12 14 16 17 20 22 25 28 30 31 32 33 34 34 35 33 33 34 34 32 31 31 33 35 38 40 40 39 39 39 38 38 39 39 39 38 37 36 35 32 30 28 29 29
7 5 4 6 7 7 7 7 6 8 6 3 6 4 7 9 9 7 2 7 5 7 9 9 8 7 7 7 6 6 4 5 4 4 4 4 4 4 2 2 4 7 12 14 15 17 19 20 22 26 29 30 32 34 35 35 34 32 32 33 33 32 32 33 36 38 40 40 40 41 41 40 40 41 41 41 42 42 39 35 33 32 30 29 29 28
4 4 5 8 8 9 10 7 6 8 5 7 8 6 9 8 6 3 5 5 2 4 6 8 8 7 8 7 5 4 6 5 3 4 5 6 4 1 2 4 6 9 11 14 16 18 19 20 20 22 25 28 30 32 34 33 32 32 32 31 30 31 33 36 39 40 40 41 42 43 43 42 41 41 42 45 47 47 44 38 33 30 29 28 27 27
4 4 5 7 6 7 8 6 6 9 5 11 11 9 10 6 2 5 5 3 5 6 6 8 8 8 7 7 6 6 5 4 4 4 5 5 2 1 2 4 7 9 12 14 16 17 19 22 23 24 27 29 29 31 32 32 31 31 31 31 30 32 36 38 39 40 42 43 43 44 46 47 47 48 48 49 47 45 45 42 36 31 29 26 26 26
8 6 5 7 6 4 5 5 5 9 7 16 15 7 6 6 4 3 3 4 6 8 7 7 7 7 7 7 6 6 5 4 4 3 4 4 3 1 2 4 6 9 12 14 15 17 20 22 23 24 28 30 31 31 32 33 31 30 31 32 34 36 38 38 39 41 42 42 42 47 54 56 57 55 49 44 40 39 40 40 36 32 29 25 24 25
8 8 5 6 7 6 7 10 6 3 7 16 14 8 10 11 5 6 5 4 4 6 7 6 6 7 8 8 7 6 5 4 3 3 4 3 1 0 3 4 5 9 12 14 16 18 20 21 24 26 28 29 30 30 30 30 31 31 31 33 36 39 38 39 41 42 43 43 44 48 56 60 57 47 38 34 34 33 34 35 34 30 26 24 22 22
11 10 4 4 9 8 6 6 4 3 8 14 11 7 10 13 7 6 7 6 5 6 6 6 7 8 8 8 7 6 5 4 4 4 4 2 1 1 3 4 6 9 12 14 16 18 19 21 25 27 29 30 30 29 29 28 30 32 33 35 38 39 38 40 43 43 44 45 44 46 54 57 48 36 31 33 33 29 29 30 29 25 21 20 21 20
6 6 2 2 6 7 6 4 4 5 7 12 11 4 5 8 7 5 6 6 6 7 6 6 8 8 8 8 7 5 5 6 5 5 4 2 1 2 3 5 7 9 12 14 17 18 20 22 24 25 28 30 30 29 29 28 28 30 33 36 38 38 39 42 44 44 45 44 43 46 50 46 36 32 34 35 31 27 27 26 25 24 22 18 17 16
3 6 5 4 6 6 6 5 8 8 8 11 10 5 3 4 5 6 6 6 7 7 7 7 9 9 8 8 8 6 6 6 6 4 3 2 1 2 3 4 7 9 11 14 16 18 20 21 22 23 26 29 30 30 30 30 30 30 33 36 37 39 42 42 42 43 44 42 42 45 43 36 33 35 35 32 30 28 27 25 24 23 21 20 18 15
5 9 7 8 9 7 3 1 6 8 8 8 8 7 5 5 6 5 4 5 7 7 6 6 7 8 8 7 7 7 6 6 6 5 4 2 1 2 2 4 6 9 12 14 15 16 18 19 20 23 25 27 30 31 31 31 32 33 35 36 38 40 42 42 44 46 44 41 41 41 36 32 33 34 30 28 29 30 28 27 26 23 21 21 19 19
8 10 8 8 9 7 6 3 4 2 3 7 9 9 8 7 7 6 5 6 8 7 6 5 5 6 7 7 7 7 7 6 6 6 4 3 2 1 2 4 7 9 12 14 14 15 17 18 20 22 24 25 28 31 32 32 34 35 36 37 39 41 41 44 48 46 40 40 42 39 33 31 33 32 29 28 30 30 28 26 25 24 25 25 24 25
10 10 8 8 8 10 11 10 7 3 4 7 9 11 9 8 8 8 7 7 8 8 9 8 5 4 5 6 7 8 7 6 6 6 5 4 2 1 2 4 7 10 12 13 14 15 16 18 19 21 23 25 28 30 32 33 34 35 37 38 39 41 41 44 44 40 38 43 45 38 32 32 33 33 31 29 30 32 32 31 29 27 25 27 30 32
11 12 11 10 9 9 8 9 9 7 6 6 7 10 9 7 9 10 9 9 9 9 10 10 8 6 5 5 6 8 7 6 7 7 5 4 3 1 2 4 6 9 12 13 13 15 17 18 19 20 22 25 28 29 31 32 33 35 37 39 40 40 40 40 37 35 40 46 42 34 32 33 33 34 33 31 31 31 30 32 37 38 36 35 34 33
Wind_Direction
74 333 288 276 18 52 35 8 319 312 316 293 289 273 262 266 262 269 272 146 132 313 267 275 279 271 260 182 164 156 138 135 139 141 136 127 122 110 101 107 129 175 198 324 358 11 351 340 344 346 345 342 339 339 338 334 333 334 334 330 328 327 324 322 320 319 318 314 312 310 308 307 304 302 300 300 300 297 298 304 308 308 312 318 320 319
81 296 300 54 43 24 7 324 279 272 271 265 259 258 256 255 259 274 280 137 121 107 260 279 271 263 266 193 157 155 149 152 152 144 138 132 127 116 117 135 157 132 47 343 4 4 349 346 349 347 345 341 338 339 338 335 334 334 333 330 326 321 319 320 322 319 315 312 309 306 304 303 302 299 295 293 294 293 294 299 300 302 311 316 318 319
348 277 80 66 41 327 259 211 223 233 246 256 249 253 254 251 281 297 293 124 104 355 259 269 263 262 270 179 155 161 155 147 139 131 130 128 123 125 133 131 90 51 19 340 343 351 348 347 348 346 344 341 337 336 337 334 332 329 326 324 321 319 318 321 322 319 315 312 309 306 301 297 294 293 290 287 288 288 289 292 293 297 306 312 316 319
299 265 90 75 79 335 280 224 229 238 236 238 239 250 256 267 6 280 283 29 327 302 270 275 270 265 270 152 150 151 131 118 116 114 115 120 125 141 146 122 85 39 5 339 323 334 342 343 346 348 345 341 336 335 335 332 328 324 322 320 318 320 321 320 319 316 314 312 309 306 302 295 288 287 288 286 286 285 285 289 289 292 300 308 315 318
270 279 19 29 173 287 302 277 258 258 260 256 257 266 267 307 347 274 306 328 312 289 265 288 288 256 188 160 161 130 120 128 133 133 131 137 147 158 148 110 82 41 7 324 301 319 334 337 346 352 348 340 335 334 332 328 325 322 320 319 320 322 321 318 316 313 313 314 311 308 305 300 292 289 289 286 286 286 286 288 287 289 295 304 312 317
266 261 70 332 261 231 284 278 259 181 265 279 285 33 14 353 327 302 311 318 311 281 222 54 317 270 162 163 171 138 149 161 158 163 154 150 159 157 122 82 59 22 342 302 301 318 324 336 350 354 347 337 333 330 325 322 321 323 323 323 324 324 320 317 314 312 314 315 313 309 305 302 298 294 290 286 287 287 287 287 286 288 292 298 307 313
248 152 107 126 293 312 277 271 260 134 171 274 230 76 40 327 289 280 288 296 277 262 255 76 303 279 189 178 177 161 173 173 170 173 153 154 160 134 100 81 60 342 309 294 298 309 325 346 354 349 341 335 329 322 318 320 325 328 325 323 323 322 320 317 312 311 314 316 313 309 304 300 297 294 290 288 288 288 287 286 286 286 287 292 301 309
182 118 106 192 213 261 264 266 266 120 113 241 208 124 50 274 266 259 260 254 247 272 275 235 227 261 266 220 179 167 173 177 178 172 152 162 153 114 102 92 61 313 293 290 299 315 341 354 350 340 334 332 325 319 319 326 330 328 324 320 320 320 318 316 312 310 313 318 316 310 304 299 294 293 293 292 290 287 287 285 283 281 281 285 292 303
152 153 175 179 195 234 226 204 194 115 121 207 202 209 226 243 250 247 249 247 251 276 271 223 195 250 265 218 157 162 173 185 183 171 163 158 130 114 109 90 12 294 287 306 324 342 353 353 343 332 328 325 321 318 322 327 326 324 322 320 318 318 317 316 315 315 318 322 317 308 302 299 296 294 294 293 289 286 287 285 282 278 275 277 282 294
155 137 139 134 177 222 175 141 149 139 190 277 319 280 246 241 239 235 234 243 254 259 263 243 187 222 271 167 146 169 184 191 183 166 160 143 124 123 110 86 286 285 311 332 345 357 355 347 335 327 322 320 318 318 324 325 324 323 322 319 318 318 318 318 319 320 321 321 317 312 309 308 305 301 298 294 288 283 282 283 281 277 269 267 274 287
148 82 65 146 202 174 125 138 162 172 245 348 334 291 275 256 238 225 214 223 264 252 263 261 197 207 262 179 162 189 186 173 172 158 147 135 127 131 124 195 294 340 351 348 358 358 347 336 328 322 319 320 322 326 330 327 326 325 322 319 319 319 319 319 320 321 320 317 315 314 314 312 308 305 304 303 298 292 286 282 281 276 267 262 269 282
162 178 221 193 311 95 100 181 192 183 216 37 327 293 315 297 253 243 208 169 240 248 272 8 29 220 247 227 165 179 129 140 155 149 138 135 137 139 134 354 5 5 354 358 3 350 338 330 325 322 321 324 328 332 330 327 327 327 324 321 320 321 320 320 320 320 318 314 312 312 312 311 309 306 306 306 303 302 300 295 290 279 265 262 265 270
245 224 165 73 346 140 121 51 248 232 191 170 246 285 311 327 312 286 303 162 230 244 173 75 36 295 242 257 191 170 143 125 129 126 129 135 136 124 66 25 11 359 1 8 358 338 332 325 322 323 325 327 329 329 326 324 326 327 325 323 322 321 320 320 320 320 318 315 312 311 311 311 310 310 309 306 303 302 302 299 297 286 265 258 261 261
287 304 112 111 324 196 164 161 206 245 171 189 213 194 196 324 316 278 270 243 250 242 183 107 23 292 243 267 206 162 141 122 118 118 126 124 114 100 67 46 5 7 17 5 345 332 325 319 320 324 328 328 327 327 326 326 326 324 323 323 322 320 321 322 321 320 318 315 313 311 309 308 308 310 310 308 305 302 299 295 297 295 276 256 257 262
271 298 201 173 183 163 181 175 152 139 159 210 180 131 170 157 232 259 255 244 274 277 245 226 353 248 217 286 156 131 121 120 123 127 125 117 118 126 128 82 24 15 15 353 337 330 318 316 322 326 328 328 326 326 328 327 324 323 323 324 323 321 321 322 321 320 319 317 315 313 310 306 305 306 307 306 305 304 303 302 303 304 297 275 260 262
231 252 223 138 209 155 170 144 119 99 357 250 90 85 199 187 218 262 276 200 275 301 273 213 223 218 154 80 109 117 125 131 138 142 127 116 115 107 78 49 26 10 360 342 333 324 315 318 323 325 325 324 325 327 328 325 324 325 327 327 324 319 318 319 320 319 317 317 315 313 311 309 307 306 307 306 306 307 306 306 304 304 305 301 284 266
245 260 237 18 323 109 84 34 121 103 118 156 74 155 230 201 149 260 298 359 64 297 273 192 249 264 124 137 139 132 145 151 155 148 124 112 87 74 62 37 19 6 351 336 328 318 315 322 326 327 326 324 327 328 326 324 324 326 328 326 322 317 316 318 319 318 317 317 316 312 310 309 308 307 306 305 306 308 307 304 301 298 300 308 306 286
211 268 235 181 295 71 6 356 320 277 122 128 171 197 208 21 84 134 290 360 39 271 264 180 234 245 176 217 179 155 172 172 156 130 118 117 95 82 47 23 11 1 344 329 325 319 320 325 327 325 322 321 326 327 324 322 322 323 325 324 320 317 316 317 319 319 319 318 316 313 310 308 307 305 304 303 305 307 308 305 301 300 300 303 309 303
57 275 257 228 329 349 20 349 297 254 112 119 207 210 94 210 233 139 160 237 243 266 274 246 246 232 195 201 179 181 192 171 127 98 97 74 64 55 17 14 358 345 334 327 325 322 321 321 320 318 316 319 325 325 322 321 320 320 320 320 317 314 315 316 316 317 316 315 314 312 309 307 306 305 304 303 305 306 306 306 306 306 305 302 305 310
59 239 258 322 327 66 85 210 206 201 98 70 10 325 97 176 209 169 158 182 231 265 282 285 282 253 192 189 167 174 173 137 112 94 93 25 39 49 21 358 338 332 328 327 325 320 320 319 317 314 314 320 324 322 321 320 319 318 317 317 316 316 318 317 316 315 314 313 312 310 308 306 305 305 304 303 303 304 303 305 307 305 303 302 303 309
76 215 242 319 341 256 183 201 197 193 176 149 180 214 204 182 162 220 225 155 202 252 269 286 284 266 166 160 130 133 131 129 128 127 150 160 90 67 24 339 331 331 325 326 325 320 320 318 315 313 315 321 322 320 319 319 319 318 317 318 318 317 318 318 317 317 315 313 312 310 308 306 305 304 304 303 301 301 301 301 303 303 303 302 301 303
158 210 233 245 242 229 226 217 203 189 177 185 200 200 202 192 157 229 253 185 173 241 227 258 274 267 201 211 122 117 133 137 130 149 189 158 101 69 355 342 333 329 326 325 323 321 319 315 314 316 321 323 322 320 320 322 321 319 320 324 321 318 317 318 319 318 315 313 312 311 309 307 306 304 303 303 300 299 299 299 299 302 303 301 301 302
145 106 250 254 253 245 243 309 90 200 191 221 235 210 194 190 175 206 242 222 160 240 206 240 271 271 168 167 145 130 149 145 155 188 179 125 99 72 330 342 331 324 326 323 320 318 313 312 316 322 324 321 320 319 320 321 320 319 323 326 322 318 317 318 319 317 314 312 311 310 310 308 306 304 302 301 301 298 297 296 297 300 301 301 301 303
68 90 234 269 284 275 240 28 7 295 43 266 248 215 195 203 186 197 230 204 162 236 211 212 256 261 150 147 146 142 155 159 189 193 140 119 125 123 328 334 332 328 328 322 318 316 312 313 320 324 322 319 318 319 320 319 319 319 322 323 319 316 318 320 321 319 315 312 310 309 308 307 306 304 301 299 298 298 296 295 296 297 297 298 300 301
192 169 149 288 301 285 269 302 283 223 190 232 229 195 209 218 161 117 217 119 245 243 226 225 250 248 208 146 146 159 182 198 216 193 118 118 123 62 356 341 338 332 327 322 319 318 314 314 321 322 320 319 319 320 320 320 319 319 319 319 318 317 319 321 321 319 316 312 310 308 306 306 306 304 301 298 297 296 296 295 295 295 294 294 296 297
196 184 166 210 265 269 271 279 265 205 185 223 220 199 208 207 191 203 220 196 239 244 224 224 247 253 239 209 205 222 226 241 257 270 87 93 70 34 4 349 342 332 326 324 322 319 316 317 321 322 320 320 320 320 321 321 319 318 316 316 318 316 315 317 319 318 316 312 310 308 307 306 305 304 302 299 296 296 296 295 294 294 293 292 293 293
131 228 216 219 239 250 260 274 246 174 186 202 209 206 208 209 208 210 218 224 233 254 245 235 240 261 265 260 267 274 273 275 278 304 54 60 41 25 6 348 335 329 325 323 321 317 320 323 322 322 320 320 320 320 322 321 317 316 314 315 317 317 316 317 318 317 314 311 309 308 308 307 305 303 301 298 296 295 295 295 293 293 292 290 290 290
120 242 226 222 240 249 258 269 189 180 217 220 209 206 207 211 211 209 219 229 222 239 256 248 234 252 262 263 265 266 269 279 284 344 64 44 14 9 4 343 329 328 324 319 317 318 322 323 321 321 320 320 321 322 322 320 317 315 314 314 317 319 319 319 318 315 312 311 310 308 307 306 305 302 300 297 296 295 294 294 292 291 291 290 289 288
137 249 226 216 243 252 256 259 236 221 240 235 220 214 217 219 216 218 228 232 224 231 252 262 258 254 259 264 266 263 271 286 290 86 92 28 16 12 359 340 327 326 321 315 315 320 323 322 319 319 320 322 323 323 322 320 317 316 316 316 318 319 319 320 318 314 310 309 309 309 306 305 304 302 299 297 295 294 293 292 291 291 291 289 288 286
151 251 228 216 252 257 249 252 254 255 260 256 239 224 228 234 229 230 237 234 231 241 254 263 265 264 264 264 269 275 281 276 232 126 127 351 29 13 349 328 320 320 315 312 318 322 323 320 318 318 320 323 324 323 322 319 317 318 317 317 319 319 319 320 318 313 310 308 309 309 308 305 303 301 300 298 296 294 292 291 290 290 290 288 286 284
209 230 177 193 256 262 239 236 250 257 262 267 259 238 232 242 242 240 241 236 233 243 251 255 261 265 266 262 268 276 266 227 162 158 274 48 48 5 331 316 316 313 311 315 320 321 322 318 317 319 321 323 323 323 321 319 318 318 317 316 318 319 319 319 317 314 312 310 308 308 309 307 303 300 299 298 295 293 291 289 287 286 286 286 285 282
207 220 114 145 247 259 208 206 237 266 279 273 266 249 232 234 240 239 236 232 229 238 248 251 252 258 265 266 261 256 232 183 162 172 16 51 33 343 315 308 311 310 315 320 321 321 322 320 318 321 323 323 323 323 321 320 319 317 317 317 317 318 319 318 316 313 310 308 307 306 308 308 304 299 297 296 294 293 291 289 286 283 282 283 283 282
188 204 158 157 224 279 113 148 175 357 304 273 261 236 220 226 236 241 242 235 229 231 240 244 243 253 272 283 246 243 218 176 151 127 111 32 336 311 296 294 302 313 318 319 320 322 322 320 318 319 321 322 322 321 320 318 317 315 315 316 317 318 317 316 314 312 308 307 307 306 306 306 304 300 296 294 294 294 292 289 286 283 283 283 282 281
192 199 185 171 191 139 121 115 84 302 266 268 259 185 198 214 226 234 239 237 230 228 235 246 252 257 258 242 234 234 201 148 117 101 97 9 296 288 293 300 309 318 318 318 321 323 319 318 317 317 319 320 319 318 318 316 315 314 314 316 316 317 316 314 313 312 308 305 306 306 306 305 302 299 297 296 294 293 292 289 287 286 285 284 281 279
186 193 188 175 175 159 125 97 112 248 251 264 49 157 195 206 216 230 243 243 233 227 235 246 250 245 238 236 219 175 128 104 86 60 331 283 271 287 351 333 321 319 318 321 322 319 319 319 318 318 319 319 318 318 317 317 317 317 317 317 317 316 316 312 308 307 307 305 305 306 306 305 302 300 299 299 296 293 290 288 287 286 284 283 278 275
175 184 183 166 169 164 137 174 212 266 304 291 222 157 127 196 207 232 256 250 225 216 228 239 244 239 232 227 173 115 102 86 64 320 282 266 107 85 54 316 314 318 317 321 321 317 319 320 318 318 318 318 318 318 318 319 320 319 318 317 316 315 312 308 304 304 308 308 307 307 307 306 303 299 298 299 296 293 290 287 285 283 281 281 277 274
171 176 174 175 194 171 181 219 236 309 313 290 245 166 171 202 190 202 256 251 205 202 223 231 235 235 221 192 122 99 95 73 21 316 315 100 105 103 103 292 310 319 320 322 320 316 316 316 317 317 316 316 316 316 318 320 320 319 316 314 316 315 311 308 306 307 308 308 309 308 306 304 302 299 298 297 294 290 288 285 283 282 279 275 273 272
183 186 173 183 206 149 152 240 259 281 277 275 253 157 189 195 157 151 265 266 189 192 217 222 224 226 200 142 114 98 84 54 334 285 125 115 122 110 59 322 322 329 327 324 319 316 316 317 318 316 315 314 314 316 320 321 320 319 315 314 317 317 312 309 309 310 310 311 310 308 306 304 301 298 297 295 291 289 287 284 280 277 274 272 271 271
193 207 188 204 222 166 173 222 235 246 250 260 66 124 152 130 105 89 332 283 210 193 203 203 208 208 168 137 125 105 89 36 253 221 155 125 98 73 38 332 328 330 322 317 316 316 318 319 319 317 315 314 314 318 322 322 320 319 315 315 316 314 311 312 313 313 311 310 309 308 307 304 300 297 294 291 286 284 282 281 279 276 272 269 269 269
191 195 189 215 222 200 202 224 236 249 249 114 95 103 114 113 101 88 317 276 234 185 181 177 185 177 146 137 131 124 155 214 223 187 144 108 70 58 33 344 332 322 316 315 317 318 318 319 318 315 314 314 316 320 323 323 323 321 319 319 318 315 315 316 316 314 311 310 311 311 307 304 300 297 293 289 287 284 280 275 272 271 269 266 265 265
191 190 196 216 222 210 211 227 256 262 233 139 139 139 116 102 90 133 224 245 180 152 160 158 163 154 141 146 149 169 205 205 163 131 113 92 71 20 336 332 320 315 317 318 321 324 322 320 316 312 310 312 316 322 325 326 325 323 322 322 319 317 319 318 315 313 312 311 310 308 305 302 298 295 294 294 294 291 286 280 271 265 262 262 261 260
178 187 211 216 211 212 217 225 268 272 214 144 150 150 127 121 207 220 204 156 134 145 141 144 153 148 152 170 177 190 202 165 112 96 91 97 121 230 307 323 317 315 320 322 325 329 326 321 318 314 313 317 322 326 329 329 326 324 325 323 320 320 321 320 317 315 314 312 308 308 310 309 307 306 305 302 299 294 290 287 278 265 258 255 254 255
169 163 207 211 180 177 214 209 250 267 194 145 142 149 165 187 206 168 141 143 156 155 145 151 161 154 161 182 188 184 174 142 115 105 111 127 145 192 294 315 318 316 323 327 327 330 328 321 317 316 317 322 326 330 333 332 328 327 328 325 323 323 322 320 319 318 316 314 311 313 318 319 317 314 310 305 302 298 294 293 286 271 257 249 247 251
177 171 199 204 168 156 198 204 211 242 162 151 152 169 197 204 181 120 138 170 171 163 158 160 168 167 169 177 182 175 160 152 158 146 142 165 168 226 292 315 326 320 324 328 326 328 328 321 316 316 318 322 328 333 337 335 330 328 328 326 325 325 322 322 322 320 318 318 318 319 323 323 319 314 310 310 311 307 302 300 294 280 260 245 244 250
199 189 184 187 182 185 210 214 192 125 151 172 183 183 192 205 200 145 148 162 172 181 172 160 168 174 167 163 163 163 163 173 175 158 153 183 225 298 305 318 327 323 324 325 324 326 326 321 318 319 319 324 332 337 339 339 334 330 328 327 327 327 325 325 324 322 321 322 322 324 326 323 318 316 318 320 318 312 308 308 305 293 273 253 246 247
208 186 143 144 194 220 251 235 153 127 166 190 198 181 173 202 206 171 161 171 173 174 166 159 167 166 157 153 153 161 175 176 168 157 151 172 267 307 316 317 322 324 324 323 323 325 325 323 321 319 320 325 333 339 341 340 338 332 327 326 327 327 326 326 326 324 324 324 325 328 328 323 317 321 325 324 319 313 309 311 310 307 301 291 272 257
196 174 184 194 180 194 241 216 168 172 192 192 194 200 183 190 194 183 184 181 163 162 165 160 155 151 148 152 157 164 170 161 157 165 166 172 265 303 321 317 319 326 324 322 322 323 325 325 323 321 323 327 333 340 341 339 339 335 329 328 329 330 329 329 327 326 327 328 329 331 329 325 323 325 325 323 321 319 315 314 311 309 309 311 308 298
165 159 184 213 199 189 233 217 157 182 195 179 185 210 210 194 191 181 168 149 135 135 139 134 134 141 148 156 160 159 157 157 162 172 174 180 249 288 306 311 319 323 318 316 319 322 325 324 321 321 324 327 333 339 340 339 339 338 335 334 334 334 333 331 330 330 329 331 334 333 329 327 328 327 323 321 323 322 319 318 317 313 310 310 314 317
142 160 177 193 201 220 243 199 129 130 196 183 193 210 212 202 194 171 136 127 126 125 123 117 120 141 152 159 160 155 158 168 166 162 169 185 220 259 286 315 321 316 312 314 319 323 324 322 321 323 325 329 334 338 339 340 340 340 340 339 338 338 336 332 332 332 333 337 339 336 332 332 332 329 326 326 325 324 322 322 322 321 322 324 326 329
152 180 177 162 190 227 230 202 175 177 211 196 197 209 211 198 181 161 145 146 150 151 148 134 114 117 136 148 157 159 165 171 162 155 166 177 187 234 284 319 320 312 311 316 320 322 322 322 325 327 328 332 337 339 339 340 341 343 343 342 342 342 339 335 334 335 337 343 343 339 337 337 335 332 333 333 332 330 330 333 337 339 339 336 335 341
177 183 171 172 202 224 217 196 189 205 221 203 190 203 208 184 163 165 172 177 175 168 160 153 147 151 154 152 157 161 160 161 161 158 158 162 171 225 300 321 318 312 312 317 322 323 322 326 333 334 333 336 338 339 340 341 342 345 345 345 346 345 342 339 337 336 340 344 343 340 341 341 337 336 338 339 339 339 339 339 343 348 353 351 347 349